International Skating Union - Official Site

ISU World Single Distance Championships 2015
February 12-15, 2015

Draw | Lap Times | Index

Referee: Susan  SANDVIG-SHOBE  (USA)
Starter: John Magne  ELIASSEN  (NOR)
StartTime: EndTime: Air Temp: Ice Temp: Humidity:
17:15 17:42
Result Team Pursuit Ladies
Rankings as of Feb 14 2015 9:08PM
Rank: No.: Team: Nation: Time: Behind: Points:
Total 8
1 4 Japan (30) Ayaka Kikuchi (34) Miho Takagi (35) Nana Takagi (33) Maki Tabata JPN JPN 3:01.530.5 - 19.07 - (19.0)
1.0 - 33.54 - (14.4)
1.5 - 47.93 - (14.3)
2.0 - 1:02.47 - (14.5)
2.5 - 1:17.09 - (14.6)
3.0 - 1:31.87 - (14.7)
3.5 - 1:46.43 - (14.5)
4.0 - 2:01.04 - (14.6)
4.5 - 2:15.83 - (14.7)
5.0 - 2:30.76 - (14.9)
5.5 - 2:45.85 - (15.0)
6.0 - 3:01.53 - (15.6)
2 1 Netherlands (48) Marije Joling (51) Marrit Leenstra (57) Ireen Wüst (55) Jorien Voorhuis NED NED 3:01.550.5 - 18.57 - (18.5)
1.0 - 32.34 - (13.7)
1.5 - 46.13 - (13.7)
2.0 - 1:00.32 - (14.1)
2.5 - 1:14.44 - (14.1)
3.0 - 1:28.62 - (14.1)
3.5 - 1:43.26 - (14.6)
4.0 - 1:58.50 - (15.2)
4.5 - 2:14.04 - (15.5)
5.0 - 2:29.86 - (15.8)
5.5 - 2:45.73 - (15.8)
6.0 - 3:01.55 - (15.8)
0.02
3 5 Russia (67) Olga Graf (70) Yuliya Skokova (71) Natalya Voronina (69) Margarita Ryzhova RUS RUS 3:03.190.5 - 19.49 - (19.4)
1.0 - 33.99 - (14.5)
1.5 - 48.36 - (14.3)
2.0 - 1:02.79 - (14.4)
2.5 - 1:17.25 - (14.4)
3.0 - 1:32.00 - (14.7)
3.5 - 1:46.58 - (14.5)
4.0 - 2:01.41 - (14.8)
4.5 - 2:16.62 - (15.2)
5.0 - 2:31.97 - (15.3)
5.5 - 2:47.47 - (15.5)
6.0 - 3:03.19 - (15.7)
1.66
4 6 Canada (5) Ivanie Blondin (6) Kali Christ (10) Josie Spence (9) Heather McLean CAN CAN 3:04.110.5 - 19.51 - (19.5)
1.0 - 33.84 - (14.3)
1.5 - 48.00 - (14.1)
2.0 - 1:02.17 - (14.1)
2.5 - 1:16.70 - (14.5)
3.0 - 1:31.41 - (14.7)
3.5 - 1:46.43 - (15.0)
4.0 - 2:01.76 - (15.3)
4.5 - 2:16.81 - (15.0)
5.0 - 2:32.70 - (15.8)
5.5 - 2:48.36 - (15.6)
6.0 - 3:04.11 - (15.7)
2.58
5 7 Korea (39) Bo-Reum Kim (42) Seon-Yeong Noh (38) Ye-Jin Jun (43) Seung-Hi Park KOR KOR 3:05.840.5 - 19.55 - (19.5)
1.0 - 33.86 - (14.3)
1.5 - 48.17 - (14.3)
2.0 - 1:02.70 - (14.5)
2.5 - 1:17.80 - (15.0)
3.0 - 1:32.90 - (15.1)
3.5 - 1:47.83 - (14.9)
4.0 - 2:03.01 - (15.1)
4.5 - 2:18.22 - (15.2)
5.0 - 2:34.00 - (15.7)
5.5 - 2:50.08 - (16.0)
6.0 - 3:05.84 - (15.7)
4.31
6 3 Poland (60) Aleksandra Goss (61) Urszula Wlodarczyk (62) Katarzyna Wozniak (63) Luiza Zlotkowska POL POL 3:06.090.5 - 19.40 - (19.3)
1.0 - 34.04 - (14.6)
1.5 - 48.10 - (14.0)
2.0 - 1:02.32 - (14.2)
2.5 - 1:17.11 - (14.7)
3.0 - 1:32.39 - (15.2)
3.5 - 1:48.10 - (15.7)
4.0 - 2:04.05 - (15.9)
4.5 - 2:19.70 - (15.6)
5.0 - 2:35.25 - (15.5)
5.5 - 2:50.64 - (15.3)
6.0 - 3:06.09 - (15.4)
4.56
7 2 Germany (23) Bente Kraus (24) Isabell Ost (25) Claudia Pechstein (22) Gabriele Hirschbichler GER GER 3:06.650.5 - 19.27 - (19.2)
1.0 - 33.64 - (14.3)
1.5 - 48.03 - (14.3)
2.0 - 1:02.61 - (14.5)
2.5 - 1:17.43 - (14.8)
3.0 - 1:32.15 - (14.7)
3.5 - 1:47.18 - (15.0)
4.0 - 2:02.41 - (15.2)
4.5 - 2:17.92 - (15.5)
5.0 - 2:33.43 - (15.5)
5.5 - 2:49.46 - (16.0)
6.0 - 3:06.65 - (17.1)
5.12
8 8 China (13) Jing Liu (14) Yichi Liu (15) Xin Zhao (12) Qishi Li CHN CHN 3:07.270.5 - 19.16 - (19.1)
1.0 - 34.01 - (14.8)
1.5 - 48.79 - (14.7)
2.0 - 1:03.84 - (15.0)
2.5 - 1:18.72 - (14.8)
3.0 - 1:33.76 - (15.0)
3.5 - 1:48.72 - (14.9)
4.0 - 2:04.28 - (15.5)
4.5 - 2:20.35 - (16.0)
5.0 - 2:36.06 - (15.7)
5.5 - 2:51.86 - (15.8)
6.0 - 3:07.27 - (15.4)
5.74